Location: Unspecified
(0.0000°N, 0.0000°E)
Time: 03:16:12
(UTC+00:00)

Hubble Space Telescope - Pass Details

Date: 22 May 2017
Orbit: 537 x 541 km, 28.5° (Epoch: 17 December)

Event Time Altitude Azimuth Distance (km) Brightness Sun altitude
Rises 19:07:00 0° 233° (SW) 2,677 4.8 -16.4°
Reaches altitude 10° 19:09:17 10° 229° (SW) 1,785 3.8 -17.0°
Maximum altitude 19:13:21 57° 150° (SSE) 631 0.8 -17.9°
Enters shadow 19:14:27 42° 96° (E) 773 1.1 -18.1°
